| time (UTC) | temp F | wind direction | speed knots | gust knots | rain 1hr in | rain 24hr in | rain mn in | humidity % | barometer mb |
| 20260904210044 | 95 | 0.0 | 0.0 | 0.00 | 0.00 | 0.00 | 55 | 1012.8 | |
| 20260904204534 | 96 | 0.0 | 0.0 | 0.00 | 0.00 | 0.00 | 55 | 1012.9 | |
| 20260904203035 | 95 | 0.0 | 0.0 | 0.00 | 0.00 | 0.00 | 53 | 1013.1 | |
| 20260904201528 | 96 | 0.0 | 0.0 | 0.00 | 0.00 | 0.00 | 56 | 1013.3 | |
| 20260904200026 | 95 | 0.0 | 0.0 | 0.00 | 0.00 | 0.00 | 52 | 1013.6 | |
| 20260904194523 | 95 | 0.0 | 0.0 | 0.00 | 0.00 | 0.00 | 55 | 1013.7 | |
| 20260904193020 | 94 | 0.0 | 0.0 | 0.00 | 0.00 | 0.00 | 59 | 1014.1 | |
| 20260904191518 | 93 | 0.0 | 0.0 | 0.00 | 0.00 | 0.00 | 59 | 1014.5 | |
| 20260904190106 | 94 | 0.0 | 0.0 | 0.00 | 0.00 | 0.00 | 57 | 1014.6 | |
| 20260904184559 | 94 | 0.0 | 0.0 | 0.00 | 0.00 | 0.00 | 58 | 1014.8 | |
| 20260904183039 | 93 | 0.0 | 0.0 | 0.00 | 0.00 | 0.00 | 58 | 1014.9 | |
| 20260904181537 | 93 | 0.0 | 0.0 | 0.00 | 0.00 | 0.00 | 62 | 1015.1 | |
| 20260904180019 | 92 | 0.0 | 0.0 | 0.00 | 0.00 | 0.00 | 65 | 1015.5 | |
| 20260904174515 | 91 | 0.0 | 0.0 | 0.00 | 0.00 | 0.00 | 64 | 1015.7 | |
| 20260904173103 | 90 | 0.0 | 0.0 | 0.00 | 0.00 | 0.00 | 67 | 1015.8 | |
| 20260904171557 | 90 | 0.0 | 0.0 | 0.00 | 0.00 | 0.00 | 67 | 1016.1 | |
| 20260904170039 | 90 | 0.0 | 0.0 | 0.00 | 0.00 | 0.00 | 70 | 1016.2 | |
| 20260904164537 | 90 | 0.0 | 0.0 | 0.00 | 0.00 | 0.00 | 70 | 1016.4 | |
| 20260904163019 | 90 | 0.0 | 0.0 | 0.00 | 0.00 | 0.00 | 68 | 1016.6 | |
| 20260904161515 | 89 | 0.0 | 0.0 | 0.00 | 0.00 | 0.00 | 70 | 1016.6 | |
| 20260904160100 | 89 | 0.0 | 0.0 | 0.00 | 0.00 | 0.00 | 72 | 1016.7 | |
| 20260904154553 | 88 | 0.0 | 0.0 | 0.00 | 0.00 | 0.00 | 72 | 1016.7 | |
| 20260904153035 | 88 | 0.0 | 0.0 | 0.00 | 0.00 | 0.00 | 71 | 1016.6 | |
| 20260904151539 | 88 | 0.0 | 0.0 | 0.00 | 0.00 | 0.00 | 72 | 1016.6 | |
| 20260904150015 | 88 | 0.0 | 0.0 | 0.00 | 0.00 | 0.00 | 75 | 1016.4 | |
| 20260904144509 | 86 | 0.0 | 0.0 | 0.00 | 0.00 | 0.00 | 76 | 1016.4 | |
| 20260904143118 | 86 | 0.0 | 0.0 | 0.00 | 0.00 | 0.00 | 77 | 1016.3 | |
| 20260904141549 | 84 | 0.0 | 0.0 | 0.00 | 0.00 | 0.00 | 81 | 1016.3 | |
| 20260904140044 | 83 | 0.0 | 0.0 | 0.00 | 0.00 | 0.00 | 83 | 1016.3 | |
| 20260904134522 | 0 | 0.0 | 0.0 | 0.00 | 0.00 | 0.00 | 1016.3 | ||
| 20260904133020 | 0 | 0.0 | 0.0 | 0.00 | 0.00 | 0.00 | 1016.3 | ||
| 20260904131602 | 0 | 0.0 | 0.0 | 0.00 | 0.00 | 0.00 | 1016.2 | ||
| 20260904130057 | 75 | 0.0 | 0.0 | 0.00 | 0.00 | 0.00 | 95 | 1016.2 | |
| 20260904124536 | 75 | 0.0 | 0.0 | 0.00 | 0.00 | 0.00 | 95 | 1016.2 | |
| 20260904123034 | 75 | 0.0 | 0.0 | 0.00 | 0.00 | 0.00 | 95 | 1016.0 | |
| 20260904121517 | 74 | 0.0 | 0.0 | 0.00 | 0.00 | 0.00 | 95 | 1015.8 | |
| 20260904120015 | 74 | 0.0 | 0.0 | 0.00 | 0.00 | 0.00 | 95 | 1015.7 | |
| 20260904114557 | 74 | 0.0 | 0.0 | 0.00 | 0.00 | 0.00 | 95 | 1015.5 | |
| 20260904113056 | 74 | 0.0 | 0.0 | 0.00 | 0.00 | 0.00 | 95 | 1015.4 | |
| 20260904111538 | 74 | 0.0 | 0.0 | 0.00 | 0.00 | 0.00 | 95 | 1015.3 | |
| 20260904110037 | 74 | 0.0 | 0.0 | 0.00 | 0.00 | 0.00 | 95 | 1015.1 | |
| 20260904104518 | 74 | 0.0 | 0.0 | 0.00 | 0.00 | 0.00 | 95 | 1015.0 | |
| 20260904103016 | 74 | 0.0 | 0.0 | 0.00 | 0.00 | 0.00 | 95 | 1014.9 | |
| 20260904101557 | 74 | 0.0 | 0.0 | 0.00 | 0.00 | 0.00 | 95 | 1014.8 | |
| 20260904100120 | 74 | 0.0 | 0.0 | 0.00 | 0.00 | 0.00 | 95 | 1014.8 | |
| 20260904094538 | 75 | 0.0 | 0.0 | 0.00 | 0.00 | 0.00 | 95 | 1014.7 | |
| 20260904093037 | 75 | 0.0 | 0.0 | 0.00 | 0.00 | 0.00 | 95 | 1014.6 | |
| 20260904091531 | 75 | 0.0 | 0.0 | 0.00 | 0.00 | 0.00 | 94 | 1014.7 | |
| 20260904090017 | 75 | 0.0 | 0.0 | 0.00 | 0.00 | 0.00 | 95 | 1014.7 | |
| 20260904084608 | 75 | 0.0 | 0.0 | 0.00 | 0.00 | 0.00 | 95 | 1014.7 | |
| 20260904083102 | 76 | 0.0 | 0.0 | 0.00 | 0.00 | 0.00 | 94 | 1014.7 | |
| 20260904081540 | 76 | 0.0 | 0.0 | 0.00 | 0.00 | 0.00 | 94 | 1014.7 | |
| 20260904080039 | 76 | 0.0 | 0.0 | 0.00 | 0.00 | 0.00 | 94 | 1014.8 | |
| 20260904074535 | 76 | 0.0 | 0.0 | 0.00 | 0.00 | 0.00 | 94 | 1014.8 | |
| 20260904073021 | 76 | 0.0 | 0.0 | 0.00 | 0.00 | 0.00 | 94 | 1014.8 | |
| 20260904071502 | 76 | 0.0 | 0.0 | 0.00 | 0.00 | 0.00 | 94 | 1014.7 | |
| 20260904070113 | 77 | 0.0 | 0.0 | 0.00 | 0.00 | 0.00 | 94 | 1014.7 | |
| 20260904064558 | 77 | 0.0 | 0.0 | 0.00 | 0.00 | 0.00 | 94 | 1014.7 | |
| 20260904063049 | 77 | 0.0 | 0.0 | 0.00 | 0.00 | 0.00 | 94 | 1014.8 | |
| 20260904061524 | 77 | 0.0 | 0.0 | 0.00 | 0.00 | 0.00 | 93 | 1014.8 | |
| 20260904060025 | 77 | 0.0 | 0.0 | 0.00 | 0.00 | 0.00 | 93 | 1014.7 | |
| 20260904054506 | 77 | 0.0 | 0.0 | 0.00 | 0.00 | 0.00 | 93 | 1014.8 | |
| 20260904053007 | 78 | 0.0 | 0.0 | 0.00 | 0.00 | 0.00 | 93 | 1014.9 | |
| 20260904051548 | 78 | 0.0 | 0.0 | 0.00 | 0.00 | 0.00 | 93 | 1014.9 | |
| 20260904050051 | 78 | 0.0 | 0.0 | 0.00 | 0.00 | 0.00 | 93 | 1014.7 | |
| 20260904044529 | 78 | 0.0 | 0.0 | 0.00 | 0.00 | 0.00 | 92 | 1014.8 | |
| 20260904043028 | 78 | 0.0 | 0.0 | 0.00 | 0.00 | 0.00 | 92 | 1014.8 | |
| 20260904041519 | 79 | 0.0 | 0.0 | 0.00 | 0.00 | 0.00 | 92 | 1014.8 | |
| 20260904040010 | 79 | 0.0 | 0.0 | 0.00 | 0.00 | 0.00 | 91 | 1014.9 | |
| 20260904034553 | 79 | 0.0 | 0.0 | 0.00 | 0.00 | 0.00 | 91 | 1015.0 | |
| 20260904033058 | 79 | 0.0 | 0.0 | 0.00 | 0.00 | 0.00 | 90 | 1015.0 | |
| 20260904031539 | 80 | 0.0 | 0.0 | 0.00 | 0.00 | 0.00 | 90 | 1015.0 | |
| 20260904030037 | 80 | 0.0 | 0.0 | 0.00 | 0.00 | 0.00 | 89 | 1015.1 | |
| 20260904024522 | 80 | 0.0 | 0.0 | 0.00 | 0.00 | 0.00 | 89 | 1015.2 | |
| 20260904023018 | 81 | 0.0 | 0.0 | 0.00 | 0.00 | 0.00 | 87 | 1015.2 | |
| 20260904021602 | 81 | 0.0 | 0.0 | 0.00 | 0.00 | 0.00 | 87 | 1015.1 | |
| 20260904020058 | 82 | 0.0 | 0.0 | 0.00 | 0.00 | 0.00 | 86 | 1014.9 | |
| 20260904014546 | 82 | 0.0 | 0.0 | 0.00 | 0.00 | 0.00 | 85 | 1014.7 | |
| 20260904013045 | 83 | 0.0 | 0.0 | 0.00 | 0.00 | 0.00 | 83 | 1014.7 | |
| 20260904011544 | 83 | 0.0 | 0.0 | 0.00 | 0.00 | 0.00 | 82 | 1014.4 | |
| 20260904010044 | 84 | 0.0 | 0.0 | 0.00 | 0.00 | 0.00 | 80 | 1014.4 | |
| 20260904004544 | 85 | 0.0 | 0.0 | 0.00 | 0.00 | 0.00 | 78 | 1014.2 | |
| 20260904003043 | 86 | 0.0 | 0.0 | 0.00 | 0.00 | 0.00 | 76 | 1014.2 | |
| 20260904001543 | 87 | 0.0 | 0.0 | 0.00 | 0.00 | 0.00 | 72 | 1014.1 | |
| 20260904000042 | 88 | 0.0 | 0.0 | 0.00 | 0.00 | 0.00 | 71 | 1014.0 | |
| 20260903234524 | 89 | 0.0 | 0.0 | 0.00 | 0.00 | 0.00 | 68 | 1013.8 | |
| 20260903233030 | 90 | 0.0 | 0.0 | 0.00 | 0.00 | 0.00 | 66 | 1013.7 | |
| 20260903231507 | 91 | 0.0 | 0.0 | 0.00 | 0.00 | 0.00 | 67 | 1013.7 | |
| 20260903230010 | 91 | 0.0 | 0.0 | 0.00 | 0.00 | 0.00 | 67 | 1013.7 | |
| 20260903224549 | 93 | 0.0 | 0.0 | 0.00 | 0.00 | 0.00 | 63 | 1013.6 | |
| 20260903223048 | 93 | 0.0 | 0.0 | 0.00 | 0.00 | 0.00 | 61 | 1013.6 | |
| 20260903221545 | 94 | 0.0 | 0.0 | 0.00 | 0.00 | 0.00 | 60 | 1013.4 | |
| 20260903220030 | 95 | 0.0 | 0.0 | 0.00 | 0.00 | 0.00 | 58 | 1013.3 | |
| 20260903214512 | 97 | 0.0 | 0.0 | 0.00 | 0.00 | 0.00 | 51 | 1013.1 | |
| 20260903213019 | 97 | 0.0 | 0.0 | 0.00 | 0.00 | 0.00 | 51 | 1013.3 | |
| 20260903211553 | 97 | 0.0 | 0.0 | 0.00 | 0.00 | 0.00 | 51 | 1013.3 |